Airfield :
LOGIN :

Register | Disclaimer

   EN    FR    IT 

 










Legend :    VFR   Marginal VFR   IFR   Intensive IFR   Very Intensive IFR
Visi :
Ceiling :
>= 8 km
>= 3000ft
5 to 8 km
1000 to 3000 ft
1500m to 5 km
500 to 1000 ft
800 to 1500m
200 to 500 ft
< 800m
< 200 ft
Symbols :   Thunderstorms  Fog  Heavy snow  Heavy precipitations  Wind > 20 kt
SIGMETs :     Misc.  Thunderstorms  Icing  Turbulence  Mountain Waves  Volcanic Ashes







- Airport Elevation : 39 ft
- IATA code : TRS


LIPQ - Friuli Venezia Giulia Apt. Trieste

CURRENT METAR :
  • 191220Z 24005KT 200V300 CAVOK 30/16 Q1015

EXPIRED METARs :
  • 191150Z 22006KT 170V300 CAVOK 30/14 Q1015
  • 191120Z VRB04KT CAVOK 30/14 Q1015
  • 191050Z 26006KT 210V350 CAVOK 29/14 Q1015
  • 191020Z 28004KT 210V330 CAVOK 29/15 Q1015
  • 190950Z 28003KT 210V340 CAVOK 28/14 Q1015

TAF TAF LIPQ
Valid from the 19 at 12:00 until the 20 at 12:00 UTC


191100Z 1912/2012 20010KT 9999 FEW040
BECMG 1917/1919 VRB05KT
BECMG 2010/2012 20010KT
No reported NOTAMs for that airfield.



MET'MAP, your aeronautical weather chart ! - Copyright ORBIFLY December 2007 - Disclaimer

ORBIFLY MET'MAP TEAM :

Programming & Development : Alexandra Zaïnal
Concept & Development : Baudouin d'Aumeries
Co-Development & Prog : Marc-Olivier Méhu
Technical & hardware support : Manuel Goepfert

Contact : metmap@orbifly.com




SOURCES & CREDITS :

   NOAA